Bagan Pulau Ketam, Malaysia

2:30 PM +08 on March 29, 2017 (GMT +0800)
Bagan Pulau Ketam

Weather History for 48647 - November, 2012

Change the Weather History Date:

Sunday, November 4, 2012

  Actual Average Record
Temperature  
Mean Temperature 80 °F -  
Max Temperature 85 °F 89 °F - ()
Min Temperature 75 °F 73 °F - ()
Cooling Degree Days 15    
Growing Degree Days 30 (Base 50)    
Moisture  
Dew Point 76 °F    
Average Humidity 93    
Maximum Humidity 100    
Minimum Humidity 72    
Precipitation  
Precipitation 0.24 in 0.35 in - ()
Sea Level Pressure  
Sea Level Pressure 29.81 in    
Wind  
Wind Speed 3 mph ()    
Max Wind Speed 10 mph    
Max Gust Speed -    
Visibility 5.8 miles    
Events Rain , Thunderstorm    
T = Trace of Precipitation, MM = Missing Value Source: Averaged Metar Reports

Daily Weather History Graph

Daily Weather History Graph

Search for Another Location

Airport or City:

Trip Planner

Search our weather history database for the weather conditions in past years. The results will help you decide how hot, cold, wet, or windy it might be!

Date:

Astronomy

Nov. 04, 2012 Rise Set
Actual Time 6:57 AM +08 6:57 PM +08
Civil Twilight 6:35 AM +08 7:18 PM +08
Nautical Twilight 6:10 AM +08 7:43 PM +08
Astronomical Twilight 5:46 AM +08 8:08 PM +08
Moon 11:18 PM +08 (11/4) 11:03 AM +08 (11/4)
Length of Visible Light 12h 42m
Length of Day
11h 59m
Waning Gibbous, 76% of the Moon is Illuminated
Nov 4
Waning Gibbous
Nov 7
Last Quarter
Nov 14
New
Nov 20
First Quarter
Nov 28
Full

Hourly Weather History & Observations

Time (+08) Temp. Heat Index Dew Point Humidity Pressure Visibility Wind Dir Wind Speed Gust Speed Precip Events Conditions
12:00 AM 75.2 °F - 75.2 °F 100% 29.83 in 6.2 mi Calm Calm - N/A Rain Light Rain
12:30 AM 75.2 °F - 75.2 °F 100% 29.80 in 5.0 mi NW 2.3 mph - N/A   Mostly Cloudy
1:00 AM 75.2 °F - 75.2 °F 100% 29.83 in 5.0 mi NNW 2.3 mph - N/A   Mostly Cloudy
1:30 AM 75.2 °F - 75.2 °F 100% 29.80 in 5.0 mi North 4.6 mph - N/A   Mostly Cloudy
2:00 AM 76 °F - 75 °F 97% 29.83 in 4 mi Calm Calm - -   Mist
2:00 AM 75.2 °F - 75.2 °F 100% 29.80 in 5.0 mi NW 2.3 mph - N/A   Mostly Cloudy
2:30 AM 75.2 °F - 73.4 °F 94% 29.80 in 6.2 mi NNE 2.3 mph - N/A   Mostly Cloudy
3:00 AM 75.2 °F - 75.2 °F 100% 29.80 in 6.2 mi NNE 4.6 mph - N/A   Mostly Cloudy
3:30 AM 75.2 °F - 75.2 °F 100% 29.80 in 6.2 mi North 3.5 mph - N/A   Mostly Cloudy
4:00 AM 75.2 °F - 75.2 °F 100% 29.80 in 6.2 mi North 2.3 mph - N/A   Mostly Cloudy
4:30 AM 75.2 °F - 75.2 °F 100% 29.80 in 6.2 mi North 2.3 mph - N/A   Mostly Cloudy
5:00 AM 76 °F - 76 °F 100% 29.80 in 3 mi Calm Calm - -   Scattered Clouds
5:00 AM 75.2 °F - 75.2 °F 100% 29.77 in 6.2 mi NE 5.8 mph - N/A   Mostly Cloudy
5:30 AM 75.2 °F - 75.2 °F 100% 29.77 in 6.2 mi NNE 4.6 mph - N/A   Mostly Cloudy
6:00 AM 75.2 °F - 75.2 °F 100% 29.77 in 6.2 mi North 3.5 mph - N/A   Mostly Cloudy
6:30 AM 75.2 °F - 75.2 °F 100% 29.80 in 6.2 mi NNE 4.6 mph - N/A   Mostly Cloudy
7:00 AM 75.2 °F - 73.4 °F 94% 29.80 in 6.2 mi NNE 4.6 mph - N/A   Mostly Cloudy
7:30 AM 75.2 °F - 75.2 °F 100% 29.80 in 6.2 mi NNE 3.5 mph - N/A   Mostly Cloudy
8:00 AM 77 °F - 76 °F 98% 29.83 in 4 mi NNW 1.2 mph - -   Mist
8:00 AM 75.2 °F - 75.2 °F 100% 29.80 in 3.7 mi NNW 1.2 mph - N/A   Mostly Cloudy
8:30 AM 77.0 °F - 75.2 °F 94% 29.83 in 3.7 mi Calm Calm - N/A   Mostly Cloudy
9:00 AM 77.0 °F - 75.2 °F 94% 29.86 in 3.7 mi NW 1.2 mph - N/A   Mostly Cloudy
9:30 AM 78.8 °F - 77.0 °F 94% 29.86 in 5.0 mi North 2.3 mph - N/A   Mostly Cloudy
10:00 AM 78.8 °F - 77.0 °F 94% 29.86 in 6.2 mi North 1.2 mph - N/A Rain Light Rain
10:30 AM 80.6 °F 87.1 °F 77.0 °F 89% 29.86 in 6.2 mi North 1.2 mph - N/A   Mostly Cloudy
11:00 AM 85 °F - 77 °F 72% 29.88 in 7 mi SSW 4.6 mph - -   Haze
11:00 AM 82.4 °F 90.9 °F 77.0 °F 84% 29.86 in 6.2 mi West 3.5 mph - N/A   Mostly Cloudy
11:30 AM 82.4 °F 90.9 °F 77.0 °F 84% 29.86 in 6.2 mi NW 3.5 mph - N/A   Mostly Cloudy
12:00 PM 82.4 °F 90.9 °F 77.0 °F 84% 29.83 in 6.2 mi NW 4.6 mph - N/A   Mostly Cloudy
12:30 PM 82.4 °F 90.9 °F 77.0 °F 84% 29.83 in 6.2 mi WNW 5.8 mph - N/A   Mostly Cloudy
1:00 PM 80.6 °F 86.2 °F 75.2 °F 84% 29.80 in 6.2 mi West 9.2 mph - N/A   Mostly Cloudy
1:30 PM 82.4 °F 90.9 °F 77.0 °F 84% 29.80 in 5.6 mi West 8.1 mph - N/A   Mostly Cloudy
2:00 PM 84 °F - 77 °F 75% 29.82 in 9 mi WNW 10.4 mph - -   Partly Cloudy
2:00 PM 82.4 °F 89.5 °F 75.2 °F 79% 29.77 in 5.6 mi WNW 9.2 mph - N/A   Mostly Cloudy
2:30 PM 82.4 °F 90.9 °F 77.0 °F 84% 29.77 in 6.2 mi WNW 4.6 mph - N/A   Mostly Cloudy
3:00 PM 84.2 °F 94.1 °F 77.0 °F 79% 29.74 in 6.2 mi WNW 4.6 mph - N/A   Mostly Cloudy
3:30 PM 82.4 °F 90.9 °F 77.0 °F 84% 29.74 in 6.2 mi WNW 6.9 mph - N/A   Mostly Cloudy
4:00 PM 84.2 °F 92.3 °F 75.2 °F 74% 29.74 in 6.2 mi WNW 9.2 mph - N/A   Mostly Cloudy
4:30 PM 80.6 °F 87.1 °F 77.0 °F 89% 29.74 in 5.6 mi North 9.2 mph - N/A Thunderstorm Thunderstorm
5:00 PM 79 °F - 76 °F 87% 29.78 in 16 mi NNW 8.1 mph - -   Partly Cloudy
5:00 PM 78.8 °F - 77.0 °F 94% 29.74 in 5.6 mi NNW 5.8 mph - N/A Rain , Thunderstorm Light Thunderstorms and Rain
5:30 PM 78.8 °F - 77.0 °F 94% 29.74 in 5.6 mi NNW 4.6 mph - N/A Rain , Thunderstorm Light Thunderstorms and Rain
6:00 PM 78.8 °F - 77.0 °F 94% 29.77 in 5.0 mi NNE 5.8 mph - N/A Rain Light Rain
6:30 PM 78.8 °F - 77.0 °F 94% 29.77 in 3.7 mi NE 5.8 mph - N/A Rain Light Rain
7:00 PM 78.8 °F - 77.0 °F 94% 29.80 in 3.7 mi NE 8.1 mph - N/A Rain Light Rain
7:30 PM 75.2 °F - 75.2 °F 100% 29.80 in 3.7 mi North 9.2 mph - N/A Rain Rain
8:00 PM 76 °F - 74 °F 94% 29.84 in 4 mi NW 2.3 mph - - Rain Light Rain
8:00 PM 75.2 °F - 73.4 °F 94% 29.80 in 5.0 mi North 5.8 mph - N/A Rain Light Rain
8:30 PM 75.2 °F - 75.2 °F 100% 29.80 in 6.2 mi NNE 6.9 mph - N/A Rain Light Rain
9:00 PM 75.2 °F - 73.4 °F 94% 29.80 in 6.2 mi NNE 5.8 mph - N/A   Mostly Cloudy
9:30 PM 75.2 °F - 73.4 °F 94% 29.83 in 6.2 mi North 3.5 mph - N/A   Mostly Cloudy
10:00 PM 75.2 °F - 75.2 °F 100% 29.83 in 6.2 mi North 2.3 mph - N/A   Mostly Cloudy
10:30 PM 75.2 °F - 73.4 °F 94% 29.86 in 6.2 mi North 3.5 mph - N/A   Mostly Cloudy
11:00 PM 76 °F - 75 °F 97% 29.87 in 4 mi NW 2.3 mph - -   Haze
11:00 PM 75.2 °F - 73.4 °F 94% 29.86 in 6.2 mi North 3.5 mph - N/A   Mostly Cloudy
11:30 PM 75.2 °F - 73.4 °F 94% 29.86 in 6.2 mi North 3.5 mph - N/A   Mostly Cloudy